Santuari del Far - Susqueda





Hora UTC 08:00
Temperatura 1.7 ºC
Humitat 85.0 %
Pressió 1015.1 hPa
Pluja 0.0 mm
Velocitat vent 3.2 km/h
Direcció vent N

Dades diàries 2022-12-01



Hora UTC (hivern +1h; estiu +2h)
Temperatura (ºC) Humitat (%) Pressió (hPa) Velocitat vent (km/h) Precipitació (mm)
Hora UTC Aire Humitat Pressió Vel. Dir. Vel. Max Dir. Intent. màx 5 min.
00:05 3.9 86.0 1015.3 4.8 N 4.8 0.0
00:10 3.8 86.0 1015.3 0.0 N 6.4 0.0
00:15 3.8 86.0 1015.3 3.2 N 3.2 0.0
00:20 3.8 86.0 1015.3 1.6 N 8.0 0.0
00:25 3.7 86.0 1015.3 3.2 N 8.0 0.0
00:30 3.7 86.0 1015.2 4.8 N 6.4 0.0
00:35 3.7 86.0 1015.2 0.0 N 6.4 0.0
00:40 3.6 86.0 1015.0 3.2 N 4.8 0.0
00:45 3.6 86.0 1015.0 0.0 N 4.8 0.0
00:50 3.6 86.0 1015.0 1.6 N 3.2 0.0
00:55 3.6 86.0 1015.0 0.0 N 3.2 0.0
01:00 3.5 86.0 1015.0 0.0 N 1.6 0.0
01:05 3.5 86.0 1015.0 0.0 N 4.8 0.0
01:10 3.4 86.0 1015.1 0.0 N 3.2 0.0
01:15 3.4 86.0 1015.2 0.0 N 1.6 0.0
01:20 3.3 87.0 1015.0 0.0 N 1.6 0.0
01:25 3.3 87.0 1015.1 0.0 N 3.2 0.0
01:30 3.3 87.0 1015.0 1.6 N 4.8 0.0
01:35 3.3 87.0 1015.1 1.6 N 4.8 0.0
01:40 3.3 87.0 1015.2 4.8 N 4.8 0.0
01:45 3.3 87.0 1015.1 1.6 N 4.8 0.0
01:50 3.3 87.0 1015.1 0.0 N 4.8 0.0
01:55 3.3 87.0 1015.1 1.6 N 4.8 0.0
02:00 3.3 87.0 1015.1 0.0 N 4.8 0.0
02:05 3.3 87.0 1015.1 3.2 N 4.8 0.0
02:10 3.3 87.0 1015.0 1.6 N 4.8 0.0
02:15 3.4 87.0 1015.2 3.2 N 4.8 0.0
02:20 3.4 87.0 1015.2 1.6 N 9.7 0.0
02:25 3.4 87.0 1015.2 3.2 N 9.7 0.0
02:30 3.4 87.0 1015.2 3.2 N 6.4 0.0
02:35 3.4 87.0 1014.9 4.8 N 8.0 0.0
02:40 3.3 86.0 1015.0 8.0 N 9.7 0.0
02:45 3.3 86.0 1014.9 3.2 N 9.7 0.0
02:50 3.2 86.0 1015.0 4.8 N 9.7 0.0
02:50 3.2 86.0 1014.9 4.8 N 9.7 0.0
02:55 3.1 86.0 1015.0 4.8 N 6.4 0.0
03:00 3.1 86.0 1014.9 6.4 N 8.0 0.0
03:05 3.0 86.0 1014.8 4.8 N 8.0 0.0
03:15 2.9 86.0 1014.8 6.4 N 6.4 0.0
03:20 2.9 87.0 1014.7 6.4 N 6.4 0.0
03:25 2.9 87.0 1014.6 4.8 N 6.4 0.0
03:30 2.9 87.0 1014.6 3.2 N 6.4 0.0
03:35 2.8 87.0 1014.7 4.8 N 8.0 0.0
03:40 2.8 87.0 1014.6 6.4 N 9.7 0.0
03:45 2.8 87.0 1014.6 8.0 N 9.7 0.0
03:50 2.8 87.0 1014.5 8.0 N 9.7 0.0
03:55 2.7 87.0 1014.4 6.4 N 9.7 0.0
04:00 2.7 87.0 1014.5 4.8 N 9.7 0.0
04:05 2.7 88.0 1014.5 8.0 N 9.7 0.0
04:10 2.7 88.0 1014.6 6.4 N 9.7 0.0
04:15 2.7 88.0 1014.5 6.4 N 9.7 0.0
04:20 2.7 88.0 1014.5 4.8 N 9.7 0.0
04:25 2.6 88.0 1014.5 6.4 N 9.7 0.0
04:30 2.6 87.0 1014.6 4.8 N 9.7 0.0
04:35 2.4 87.0 1014.4 6.4 N 8.0 0.0
04:40 2.3 87.0 1014.3 6.4 N 9.7 0.0
04:45 2.3 87.0 1014.4 6.4 N 9.7 0.0
04:50 2.2 86.0 1014.4 4.8 N 8.0 0.0
04:55 2.1 86.0 1014.5 6.4 N 11.3 0.0
05:00 2.1 86.0 1014.5 6.4 N 11.3 0.0
05:05 2.1 86.0 1014.4 4.8 N 9.7 0.0
05:10 2.0 86.0 1014.5 6.4 N 9.7 0.0
05:15 2.0 86.0 1014.5 4.8 N 9.7 0.0
05:20 1.9 86.0 1014.4 3.2 N 9.7 0.0
05:25 1.9 86.0 1014.5 4.8 N 9.7 0.0
05:30 2.0 87.0 1014.4 3.2 N 9.7 0.0
05:35 2.0 87.0 1014.4 6.4 N 8.0 0.0
05:40 1.9 87.0 1014.4 6.4 N 9.7 0.0
05:45 1.9 87.0 1014.4 9.7 N 9.7 0.0
05:50 1.9 86.0 1014.3 4.8 N 11.3 0.0
05:55 1.9 86.0 1014.3 6.4 N 11.3 0.0
06:00 1.8 86.0 1014.5 8.0 N 9.7 0.0
06:05 1.8 86.0 1014.3 6.4 N 9.7 0.0
06:10 1.8 86.0 1014.4 4.8 N 9.7 0.0
06:15 1.7 86.0 1014.5 4.8 N 8.0 0.0
06:20 1.7 86.0 1014.5 4.8 N 9.7 0.0
06:25 1.7 85.0 1014.5 4.8 N 11.3 0.0
06:30 1.6 85.0 1014.5 8.0 N 11.3 0.0
06:35 1.6 85.0 1014.5 6.4 N 9.7 0.0
06:40 1.6 85.0 1014.6 6.4 N 11.3 0.0
06:45 1.6 85.0 1014.6 6.4 N 12.9 0.0
06:50 1.5 85.0 1014.6 4.8 N 11.3 0.0
06:55 1.5 85.0 1014.6 8.0 N 9.7 0.0
07:00 1.5 85.0 1014.6 3.2 N 8.0 0.0
07:05 1.4 85.0 1014.5 8.0 N 8.0 0.0
07:10 1.4 85.0 1014.6 6.4 N 9.7 0.0
07:15 1.4 85.0 1014.6 3.2 N 9.7 0.0
07:20 1.4 85.0 1014.6 3.2 N 8.0 0.0
07:25 1.4 85.0 1014.7 1.6 N 6.4 0.0
07:30 1.4 85.0 1014.9 1.6 N 6.4 0.0
07:35 1.4 86.0 1014.9 1.6 N 6.4 0.0
07:40 1.4 86.0 1014.9 0.0 N 3.2 0.0
07:45 1.4 86.0 1014.8 0.0 N 4.8 0.0
07:50 1.4 85.0 1014.8 0.0 N 4.8 0.0
07:55 1.5 86.0 1014.9 6.4 N 8.0 0.0
08:00 1.7 85.0 1015.1 3.2 N 8.0 0.0
Màxima 3.9 88.0 1015.3 9.7 N 12.9 0.0
Mínima 1.4 85.0 1014.3
Total 0.0